GW3580 Weather Reports


time (UTC)temp
C
wind
direction
speed
KPH
gust
KPH
rain 1hr
cm
rain 24hr
cm
rain mn
cm
humidity
%
barometer
mb
20260902123213 13 319 0.0 0.0 0.00 0.00 0.00 73 1015.4
20260902122712 13 304 0.0 1.6 0.00 0.00 0.00 73 1015.5
20260902122207 13 271 1.6 1.6 0.00 0.00 0.00 72 1015.4
20260902121702 13 292 1.6 1.6 0.00 0.00 0.00 72 1015.6
20260902121156 13 328 1.6 1.6 0.00 0.00 0.00 72 1015.5
20260902120653 13 316 0.0 0.0 0.00 0.00 0.00 71 1015.4
20260902120149 13 268 1.6 1.6 0.00 0.00 0.00 71 1015.6
20260902115649 13 247 4.8 6.4 0.00 0.00 0.00 72 1015.6
20260902115145 13 227 4.8 6.4 0.00 0.00 0.00 72 1015.6
20260902114641 13 287 1.6 3.2 0.00 0.00 0.00 71 1015.6
20260902114136 13 274 3.2 3.2 0.00 0.00 0.00 72 1015.8
20260902113631 13 286 1.6 1.6 0.00 0.00 0.00 72 1015.6
20260902113126 13 45 0.0 1.6 0.00 0.00 0.00 71 1015.6
20260902112621 13 310 3.2 3.2 0.00 0.00 0.00 71 1015.3
20260902112118 13 257 3.2 6.4 0.00 0.00 0.00 71 1015.7
20260902111608 13 219 1.6 1.6 0.00 0.00 0.00 71 1015.3
20260902111103 13 247 1.6 3.2 0.00 0.00 0.00 71 1015.5
20260902110559 14 286 3.2 3.2 0.00 0.00 0.00 70 1015.4
20260902110055 14 263 3.2 3.2 0.00 0.00 0.00 69 1015.2
20260902105555 14 265 1.6 3.2 0.00 0.00 0.00 69 1015.3
20260902105055 14 263 4.8 8.0 0.00 0.00 0.00 69 1015.3
20260902104550 14 246 4.8 6.4 0.00 0.00 0.00 68 1015.4
20260902104045 14 234 4.8 6.4 0.00 0.00 0.00 67 1015.2
20260902103540 15 243 4.8 6.4 0.00 0.00 0.00 67 1015.3
20260902103035 15 258 4.8 6.4 0.00 0.00 0.00 66 1015.0
20260902102532 15 253 4.8 8.0 0.00 0.00 0.00 65 1015.2
20260902102029 15 254 3.2 3.2 0.00 0.00 0.00 65 1015.2
20260902101524 15 270 3.2 3.2 0.00 0.00 0.00 64 1015.1
20260902101023 15 297 1.6 1.6 0.00 0.00 0.00 63 1015.2
20260902100517 15 277 4.8 6.4 0.00 0.00 0.00 63 1015.2
20260902100012 15 259 3.2 3.2 0.00 0.00 0.00 64 1015.0
20260902095511 15 277 1.6 1.6 0.00 0.00 0.00 63 1015.1
20260902095010 16 269 1.6 1.6 0.00 0.00 0.00 63 1015.2
20260902094506 16 256 3.2 3.2 0.00 0.00 0.00 63 1015.0
20260902094002 16 265 3.2 3.2 0.00 0.00 0.00 63 1015.0
20260902093456 16 277 0.0 1.6 0.00 0.00 0.00 63 1015.0
20260902092955 16 324 1.6 1.6 0.00 0.00 0.00 63 1015.0
20260902092451 16 261 3.2 3.2 0.00 0.00 0.00 62 1015.0
20260902091951 16 245 3.2 3.2 0.00 0.00 0.00 62 1015.0
20260902091446 16 251 3.2 3.2 0.00 0.00 0.00 62 1015.0
20260902090943 16 247 1.6 1.6 0.00 0.00 0.00 62 1015.2
20260902090438 16 245 3.2 3.2 0.00 0.00 0.00 62 1015.3
20260902085936 16 260 1.6 1.6 0.00 0.00 0.00 61 1015.4
20260902085432 16 249 3.2 6.4 0.00 0.00 0.00 61 1015.3
20260902084927 16 286 1.6 3.2 0.00 0.00 0.00 60 1015.3
20260902084423 16 264 3.2 3.2 0.00 0.00 0.00 60 1015.4
20260902083919 16 213 3.2 6.4 0.00 0.00 0.00 60 1015.3
20260902083419 16 265 3.2 8.0 0.00 0.00 0.00 60 1015.1
20260902082914 16 290 4.8 6.4 0.00 0.00 0.00 59 1015.3
20260902082409 17 244 3.2 3.2 0.00 0.00 0.00 59 1015.4
20260902081906 17 240 3.2 3.2 0.00 0.00 0.00 58 1015.2
20260902081402 17 246 4.8 6.4 0.00 0.00 0.00 59 1015.5
20260902080856 17 227 3.2 6.4 0.00 0.00 0.00 58 1015.2
20260902080353 17 250 9.7 12.9 0.00 0.00 0.00 58 1015.3
20260902075852 17 277 8.0 9.7 0.00 0.00 0.00 58 1015.2
20260902075348 17 251 6.4 8.0 0.00 0.00 0.00 57 1015.1
20260902074843 17 259 4.8 6.4 0.00 0.00 0.00 58 1015.0
20260902074339 17 248 8.0 11.3 0.00 0.00 0.00 57 1015.1
20260902073834 17 259 9.7 12.9 0.00 0.00 0.00 56 1015.0
20260902073330 17 263 9.7 11.3 0.00 0.00 0.00 57 1015.1
20260902072826 17 246 8.0 9.7 0.00 0.00 0.00 57 1015.1
20260902072321 17 242 8.0 11.3 0.00 0.00 0.00 56 1015.1
20260902071818 17 249 6.4 8.0 0.00 0.00 0.00 57 1015.0
20260902071312 17 266 9.7 11.3 0.00 0.00 0.00 56 1015.1
20260902070809 17 248 8.0 12.9 0.00 0.00 0.00 57 1015.1
20260902070308 17 276 8.0 11.3 0.00 0.00 0.00 56 1015.2
20260902065807 17 266 6.4 8.0 0.00 0.00 0.00 57 1014.9
20260902065306 17 254 6.4 8.0 0.00 0.00 0.00 56 1014.8
20260902064758 17 301 9.7 11.3 0.00 0.00 0.00 55 1014.9
20260902064254 18 224 1.6 3.2 0.00 0.00 0.00 55 1014.9
20260902063749 18 238 9.7 14.5 0.00 0.00 0.00 55 1014.8
20260902063243 18 285 4.8 6.4 0.00 0.00 0.00 55 1014.8
20260902062743 18 267 9.7 12.9 0.00 0.00 0.00 54 1014.7
20260902062238 18 162 4.8 8.0 0.00 0.00 0.00 55 1014.8
20260902061737 18 247 6.4 9.7 0.00 0.00 0.00 55 1014.9
20260902061233 18 269 6.4 8.0 0.00 0.00 0.00 54 1014.7
20260902060730 18 267 11.3 14.5 0.00 0.00 0.00 53 1014.6
20260902060225 18 243 4.8 8.0 0.00 0.00 0.00 55 1014.4
20260902055720 18 262 3.2 3.2 0.00 0.00 0.00 54 1014.7
20260902055217 18 248 9.7 12.9 0.00 0.00 0.00 54 1014.6
20260902054712 18 264 8.0 9.7 0.00 0.00 0.00 54 1014.6
20260902054207 18 296 4.8 6.4 0.00 0.00 0.00 55 1014.7
20260902053703 18 264 6.4 8.0 0.00 0.00 0.00 55 1014.6
20260902053202 18 286 8.0 9.7 0.00 0.00 0.00 55 1014.8
20260902052701 18 273 8.0 9.7 0.00 0.00 0.00 55 1014.8
20260902052157 18 280 4.8 6.4 0.00 0.00 0.00 55 1014.6
20260902051656 18 266 9.7 11.3 0.00 0.00 0.00 53 1014.7
20260902051151 19 261 8.0 11.3 0.00 0.00 0.00 52 1014.6
20260902050645 19 259 8.0 12.9 0.00 0.00 0.00 51 1014.5
20260902050141 19 299 9.7 12.9 0.00 0.00 0.00 51 1014.4
20260902045635 19 253 8.0 9.7 0.00 0.00 0.00 49 1014.4
20260902045131 20 241 8.0 9.7 0.00 0.00 0.00 49 1014.4
20260902044626 20 286 8.0 11.3 0.00 0.00 0.00 47 1014.4
20260902044123 20 291 6.4 8.0 0.00 0.00 0.00 46 1014.3
20260902043617 20 258 6.4 8.0 0.00 0.00 0.00 45 1014.2
20260902043112 20 259 4.8 8.0 0.00 0.00 0.00 46 1014.0
20260902042611 20 298 6.4 8.0 0.00 0.00 0.00 46 1014.1
20260902042108 20 257 4.8 8.0 0.00 0.00 0.00 45 1013.9
20260902041607 21 263 8.0 11.3 0.00 0.00 0.00 45 1013.9
20260902041101 21 240 9.7 12.9 0.00 0.00 0.00 45 1013.7
20260902040555 21 283 8.0 11.3 0.00 0.00 0.00 44 1013.9
20260902040050 21 267 4.8 8.0 0.00 0.00 0.00 44 1013.5
20260902035549 21 259 6.4 9.7 0.00 0.00 0.00 44 1013.5
20260902035045 21 274 4.8 8.0 0.00 0.00 0.00 45 1013.3
20260902034544 21 259 4.8 6.4 0.00 0.00 0.00 46 1013.4
20260902034043 21 271 1.6 1.6 0.00 0.00 0.00 49 1013.0
20260902033542 21 264 1.6 1.6 0.00 0.00 0.00 48 1013.1
20260902033037 21 104 0.0 0.0 0.00 0.00 0.00 48 1013.2
20260902032536 21 52 0.0 0.0 0.00 0.00 0.00 47 1012.9
20260902032031 21 54 0.0 0.0 0.00 0.00 0.00 47 1013.0
20260902031526 21 38 1.6 1.6 0.00 0.00 0.00 47 1012.8
20260902031022 21 265 0.0 1.6 0.00 0.00 0.00 48 1012.8
20260902030517 21 271 0.0 0.0 0.00 0.00 0.00 48 1012.9
20260902030016 22 282 1.6 1.6 0.00 0.00 0.00 47 1012.6
20260902025511 22 228 1.6 1.6 0.00 0.00 0.00 47 1012.6
20260902025006 22 31 0.0 0.0 0.00 0.00 0.00 46 1012.7
20260902024502 22 321 1.6 1.6 0.00 0.00 0.00 44 1012.7
20260902023956 22 48 0.0 0.0 0.00 0.00 0.00 44 1012.5
20260902023452 23 287 0.0 0.0 0.00 0.00 0.00 42 1012.5
20260902022951 23 250 1.6 1.6 0.00 0.00 0.00 41 1012.6
20260902022447 23 253 3.2 3.2 0.00 0.00 0.00 40 1012.5
20260902021942 23 267 6.4 8.0 0.00 0.00 0.00 38 1012.3
20260902021437 24 250 4.8 6.4 0.00 0.00 0.00 38 1012.7
20260902020932 24 264 4.8 6.4 0.00 0.00 0.00 37 1012.4
20260902020429 25 245 6.4 8.0 0.00 0.00 0.00 35 1012.3
20260902015924 25 266 6.4 8.0 0.00 0.00 0.00 34 1012.4
20260902015420 25 241 8.0 11.3 0.00 0.00 0.00 33 1012.3
20260902014915 25 280 3.2 3.2 0.00 0.00 0.00 33 1012.3
20260902014412 25 246 4.8 6.4 0.00 0.00 0.00 32 1012.2
20260902013910 25 281 4.8 6.4 0.00 0.00 0.00 31 1012.1
20260902013406 25 280 4.8 6.4 0.00 0.00 0.00 31 1012.0
20260902012901 25 256 4.8 8.0 0.00 0.00 0.00 30 1012.1
20260902012357 26 337 4.8 8.0 0.00 0.00 0.00 31 1012.0
20260902011852 26 266 3.2 3.2 0.00 0.00 0.00 28 1012.0
20260902011346 26 45 1.6 1.6 0.00 0.00 0.00 28 1012.1
20260902010841 26 290 3.2 6.4 0.00 0.00 0.00 31 1012.1
20260902010336 26 253 6.4 9.7 0.00 0.00 0.00 31 1012.1
20260902005835 27 265 4.8 8.0 0.00 0.00 0.00 30 1012.0
20260902005329 27 250 1.6 1.6 0.00 0.00 0.00 28 1012.0
20260902004825 27 271 8.0 9.7 0.00 0.00 0.00 27 1012.2
20260902004319 27 196 1.6 1.6 0.00 0.00 0.00 27 1012.0
20260902003814 27 105 1.6 1.6 0.00 0.00 0.00 26 1012.1
20260902003309 27 277 3.2 3.2 0.00 0.00 0.00 27 1012.1
20260902002805 28 214 1.6 3.2 0.00 0.00 0.00 26 1012.2
20260902002306 28 248 3.2 3.2 0.00 0.00 0.00 27 1012.2
20260902001800 27 344 1.6 3.2 0.00 0.00 0.00 29 1012.3
20260902001255 28 241 3.2 3.2 0.00 0.00 0.00 30 1012.3
20260902000749 27 259 4.8 6.4 0.00 0.00 0.00 29 1012.3
20260902000244 27 233 3.2 3.2 0.00 0.00 0.00 31 1012.3
20260901235739 28 147 1.6 1.6 0.00 0.00 0.00 29 1012.2
20260901235234 27 37 1.6 1.6 0.00 0.00 0.00 31 1012.4
20260901234734 27 22 0.0 1.6 0.00 0.00 0.00 31 1012.4
20260901234233 27 264 3.2 3.2 0.00 0.00 0.00 29 1012.4
20260901233728 27 265 4.8 6.4 0.00 0.00 0.00 29 1012.4
20260901233225 27 279 9.7 12.9 0.00 0.00 0.00 29 1012.5
20260901232725 27 225 4.8 6.4 0.00 0.00 0.00 30 1012.4
20260901232220 27 238 4.8 6.4 0.00 0.00 0.00 30 1012.4
20260901231716 26 209 3.2 3.2 0.00 0.00 0.00 30 1012.3
20260901231212 26 253 6.4 8.0 0.00 0.00 0.00 30 1012.4
20260901230708 27 250 6.4 8.0 0.00 0.00 0.00 31 1012.4
20260901230207 26 266 4.8 6.4 0.00 0.00 0.00 30 1012.8
20260901225703 27 238 8.0 8.0 0.00 0.00 0.00 31 1012.8
20260901225157 27 263 3.2 3.2 0.00 0.00 0.00 31 1012.9
20260901224653 27 251 3.2 3.2 0.00 0.00 0.00 32 1012.9
20260901224149 27 274 4.8 6.4 0.00 0.00 0.00 31 1012.8
20260901223644 27 228 4.8 6.4 0.00 0.00 0.00 32 1013.0
20260901223139 27 315 1.6 1.6 0.00 0.00 0.00 32 1012.8
20260901222636 27 300 4.8 8.0 0.00 0.00 0.00 34 1013.2
20260901222132 26 261 4.8 6.4 0.00 0.00 0.00 34 1013.3
20260901221627 27 287 4.8 6.4 0.00 0.00 0.00 33 1013.4
20260901221123 27 135 0.0 1.6 0.00 0.00 0.00 32 1013.2
20260901220622 27 344 3.2 3.2 0.00 0.00 0.00 33 1013.4
20260901220121 26 238 8.0 11.3 0.00 0.00 0.00 34 1013.5
20260901215619 26 309 3.2 3.2 0.00 0.00 0.00 33 1013.6
20260901215114 26 353 1.6 3.2 0.00 0.00 0.00 33 1013.8
20260901214613 26 82 1.6 1.6 0.00 0.00 0.00 33 1013.6
20260901214113 26 347 1.6 3.2 0.00 0.00 0.00 34 1013.7
20260901213607 25 265 6.4 8.0 0.00 0.00 0.00 35 1013.6
20260901213101 26 32 4.8 8.0 0.00 0.00 0.00 34 1013.7
20260901212601 25 230 1.6 1.6 0.00 0.00 0.00 36 1013.8
20260901212058 26 5 1.6 3.2 0.00 0.00 0.00 34 1013.8
20260901211553 25 32 1.6 1.6 0.00 0.00 0.00 34 1013.9
20260901211049 25 265 3.2 6.4 0.00 0.00 0.00 36 1013.7
20260901210544 26 240 3.2 3.2 0.00 0.00 0.00 35 1014.1
20260901210041 25 74 0.0 0.0 0.00 0.00 0.00 34 1014.0
20260901205535 25 224 4.8 6.4 0.00 0.00 0.00 35 1014.1
20260901205030 25 240 4.8 6.4 0.00 0.00 0.00 35 1014.2
20260901204526 25 323 1.6 1.6 0.00 0.00 0.00 35 1014.0
20260901204021 25 10 3.2 3.2 0.00 0.00 0.00 35 1014.0
20260901203515 25 82 3.2 3.2 0.00 0.00 0.00 36 1014.3
20260901203010 24 353 1.6 1.6 0.00 0.00 0.00 37 1014.3
20260901202505 25 30 1.6 1.6 0.00 0.00 0.00 36 1014.4
20260901202001 24 28 6.4 9.7 0.00 0.00 0.00 36 1014.5
20260901201456 24 251 6.4 8.0 0.00 0.00 0.00 38 1014.5
20260901200950 23 290 4.8 6.4 0.00 0.00 0.00 39 1014.6
20260901200445 23 324 1.6 1.6 0.00 0.00 0.00 38 1014.4
20260901195944 23 263 8.0 9.7 0.00 0.00 0.00 39 1014.7
20260901195443 23 262 3.2 6.4 0.00 0.00 0.00 39 1014.7
20260901194937 23 243 1.6 3.2 0.00 0.00 0.00 38 1014.9
20260901194433 24 75 1.6 1.6 0.00 0.00 0.00 36 1015.0
20260901193929 23 214 1.6 3.2 0.00 0.00 0.00 40 1015.1
20260901193428 22 258 6.4 6.4 0.00 0.00 0.00 39 1015.0
20260901192927 23 348 0.0 1.6 0.00 0.00 0.00 38 1015.0
20260901192423 23 240 9.7 11.3 0.00 0.00 0.00 38 1015.1
20260901191919 23 269 3.2 6.4 0.00 0.00 0.00 42 1015.2
20260901191415 22 157 0.0 1.6 0.00 0.00 0.00 41 1015.2
20260901190910 22 309 1.6 1.6 0.00 0.00 0.00 40 1015.3
20260901190405 22 44 0.0 0.0 0.00 0.00 0.00 41 1015.3
20260901185903 23 218 6.4 8.0 0.00 0.00 0.00 40 1015.5
20260901185403 22 98 0.0 1.6 0.00 0.00 0.00 42 1015.4
20260901184857 22 20 0.0 0.0 0.00 0.00 0.00 42 1015.6
20260901184353 21 278 3.2 3.2 0.00 0.00 0.00 43 1015.4
20260901183848 21 345 3.2 6.4 0.00 0.00 0.00 43 1015.7
20260901183347 21 257 4.8 6.4 0.00 0.00 0.00 45 1015.6
20260901182844 21 246 8.0 9.7 0.00 0.00 0.00 45 1015.5
20260901182344 21 262 8.0 9.7 0.00 0.00 0.00 45 1015.6
20260901181838 21 41 0.0 1.6 0.00 0.00 0.00 44 1015.4
20260901181333 21 241 1.6 1.6 0.00 0.00 0.00 45 1015.4
20260901180832 21 266 4.8 6.4 0.00 0.00 0.00 46 1015.5
20260901180332 21 231 3.2 3.2 0.00 0.00 0.00 46 1015.6
20260901175831 21 197 0.0 1.6 0.00 0.00 0.00 46 1015.8
20260901175325 21 243 6.4 9.7 0.00 0.00 0.00 46 1015.6
20260901174820 21 239 4.8 6.4 0.00 0.00 0.00 47 1015.7
20260901174316 20 250 0.0 1.6 0.00 0.00 0.00 49 1015.6
20260901173811 20 254 6.4 8.0 0.00 0.00 0.00 46 1015.6
20260901173306 20 233 8.0 12.9 0.00 0.00 0.00 48 1015.4
20260901172803 20 244 3.2 6.4 0.00 0.00 0.00 51 1015.7
20260901172304 20 242 4.8 6.4 0.00 0.00 0.00 49 1015.4
20260901171800 20 241 8.0 11.3 0.00 0.00 0.00 50 1015.3
20260901171259 20 277 8.0 9.7 0.00 0.00 0.00 50 1015.3
20260901170759 20 144 1.6 1.6 0.00 0.00 0.00 50 1015.6
20260901170253 20 269 1.6 1.6 0.00 0.00 0.00 51 1015.5
20260901165752 20 110 3.2 3.2 0.00 0.00 0.00 50 1015.5
20260901165247 19 243 1.6 3.2 0.00 0.00 0.00 51 1015.6
20260901164743 18 250 4.8 8.0 0.00 0.00 0.00 53 1015.4
20260901164239 18 251 8.0 9.7 0.00 0.00 0.00 53 1015.2
20260901163733 18 249 6.4 8.0 0.00 0.00 0.00 53 1015.6
20260901163232 18 245 3.2 6.4 0.00 0.00 0.00 55 1015.2
20260901162728 18 261 11.3 11.3 0.00 0.00 0.00 54 1015.1
20260901162227 18 158 1.6 3.2 0.00 0.00 0.00 55 1015.2
20260901161726 18 46 1.6 3.2 0.00 0.00 0.00 55 1015.3
20260901161221 18 12 1.6 1.6 0.00 0.00 0.00 57 1015.0
20260901160717 17 18 3.2 6.4 0.00 0.00 0.00 57 1015.1
20260901160212 17 230 3.2 3.2 0.00 0.00 0.00 58 1014.9
20260901155711 17 161 1.6 1.6 0.00 0.00 0.00 59 1014.9
20260901155207 17 192 1.6 1.6 0.00 0.00 0.00 59 1014.6
20260901154702 17 207 4.8 6.4 0.00 0.00 0.00 60 1014.5
20260901154156 17 82 1.6 1.6 0.00 0.00 0.00 61 1014.8
20260901153652 16 275 3.2 3.2 0.00 0.00 0.00 62 1014.5
20260901153151 16 241 6.4 8.0 0.00 0.00 0.00 62 1014.6
20260901152646 16 276 1.6 3.2 0.00 0.00 0.00 63 1014.6
20260901152144 16 250 3.2 3.2 0.00 0.00 0.00 63 1014.6
20260901151641 16 19 1.6 3.2 0.00 0.00 0.00 64 1014.5
20260901151140 15 306 3.2 3.2 0.00 0.00 0.00 65 1014.6
20260901150639 15 121 1.6 1.6 0.00 0.00 0.00 66 1014.5
20260901150132 15 150 3.2 3.2 0.00 0.00 0.00 67 1014.5
20260901145630 15 193 3.2 3.2 0.00 0.00 0.00 68 1014.6
20260901145130 15 261 1.6 3.2 0.00 0.00 0.00 68 1014.4
20260901144626 15 233 1.6 1.6 0.00 0.00 0.00 69 1014.4
20260901144121 15 144 1.6 1.6 0.00 0.00 0.00 70 1014.5
20260901143616 15 251 1.6 3.2 0.00 0.00 0.00 70 1014.7
20260901143112 14 12 1.6 3.2 0.00 0.00 0.00 71 1014.3
20260901142608 13 36 0.0 0.0 0.00 0.00 0.00 72 1014.3
20260901142107 13 258 3.2 6.4 0.00 0.00 0.00 73 1014.2
20260901141602 13 58 0.0 0.0 0.00 0.00 0.00 73 1014.3
20260901141057 13 261 3.2 3.2 0.00 0.00 0.00 74 1013.9
20260901140555 13 269 3.2 3.2 0.00 0.00 0.00 74 1014.0
20260901140055 13 38 0.0 0.0 0.00 0.00 0.00 75 1013.9
20260901135555 13 266 1.6 3.2 0.00 0.00 0.00 74 1013.9
20260901135050 13 276 0.0 1.6 0.00 0.00 0.00 74 1013.8
20260901134547 13 247 4.8 6.4 0.00 0.00 0.00 74 1013.9
20260901134047 13 271 4.8 6.4 0.00 0.00 0.00 74 1013.8
20260901133546 13 280 4.8 9.7 0.00 0.00 0.00 74 1013.8
20260901133044 13 252 3.2 3.2 0.00 0.00 0.00 74 1013.8
20260901132539 13 254 6.4 8.0 0.00 0.00 0.00 74 1013.7
20260901132038 13 264 3.2 3.2 0.00 0.00 0.00 74 1013.5
20260901131532 13 281 0.0 1.6 0.00 0.00 0.00 74 1013.3
20260901131023 13 249 1.6 1.6 0.00 0.00 0.00 73 1013.3
20260901130522 13 267 4.8 6.4 0.00 0.00 0.00 73 1013.1
20260901130021 13 248 3.2 3.2 0.00 0.00 0.00 73 1013.1
20260901125520 14 258 3.2 6.4 0.00 0.00 0.00 73 1012.9
20260901125015 14 237 1.6 3.2 0.00 0.00 0.00 72 1012.8
20260901124509 14 246 3.2 3.2 0.00 0.00 0.00 72 1013.1
20260901124004 14 288 3.2 3.2 0.00 0.00 0.00 72 1012.6